TimeCST,TemperatureF,Dew PointF,Humidity,Sea Level PressureIn,VisibilityMPH,Wind Direction,Wind SpeedMPH,Gust SpeedMPH,PrecipitationIn,Events,Conditions,WindDirDegrees,DateUTC
12:53 AM,26.1,21.9,84,30.48,10.0,Calm,Calm,-,N/A,,Clear,0,2013-01-04 06:53:00
1:53 AM,25.0,21.9,88,30.47,10.0,Calm,Calm,-,N/A,,Clear,0,2013-01-04 07:53:00
2:53 AM,21.0,19.0,92,30.47,9.0,NNW,3.5,-,N/A,,Clear,340,2013-01-04 08:53:00
3:53 AM,25.0,21.9,88,30.46,10.0,Calm,Calm,-,N/A,,Clear,0,2013-01-04 09:53:00
4:53 AM,24.1,21.0,88,30.46,10.0,Calm,Calm,-,N/A,,Clear,0,2013-01-04 10:53:00
5:53 AM,23.0,19.9,88,30.48,9.0,Calm,Calm,-,N/A,,Clear,0,2013-01-04 11:53:00
6:53 AM,23.0,19.4,86,30.47,9.0,SSE,3.5,-,N/A,,Clear,150,2013-01-04 12:53:00
7:53 AM,24.1,21.0,88,30.48,8.0,SSE,3.5,-,N/A,,Clear,160,2013-01-04 13:53:00
8:53 AM,28.0,25.0,88,30.48,8.0,SSE,3.5,-,N/A,,Clear,160,2013-01-04 14:53:00
9:53 AM,34.0,26.1,73,30.48,10.0,SSE,8.1,-,N/A,,Clear,160,2013-01-04 15:53:00
10:53 AM,39.0,26.1,60,30.48,10.0,South,8.1,-,N/A,,Partly Cloudy,180,2013-01-04 16:53:00
11:53 AM,42.1,25.0,51,30.45,10.0,South,10.4,17.3,N/A,,Partly Cloudy,190,2013-01-04 17:53:00
12:53 PM,46.0,25.0,44,30.40,10.0,SSW,6.9,-,N/A,,Scattered Clouds,210,2013-01-04 18:53:00
1:53 PM,48.9,24.1,38,30.37,10.0,SW,9.2,-,N/A,,Scattered Clouds,220,2013-01-04 19:53:00
2:53 PM,48.9,24.1,38,30.36,10.0,SW,6.9,-,N/A,,Mostly Cloudy,220,2013-01-04 20:53:00
3:53 PM,48.0,23.0,37,30.36,10.0,WSW,9.2,-,N/A,,Scattered Clouds,240,2013-01-04 21:53:00
4:53 PM,46.9,23.0,39,30.36,10.0,SSW,8.1,-,N/A,,Partly Cloudy,210,2013-01-04 22:53:00
5:53 PM,41.0,23.0,49,30.36,10.0,South,4.6,-,N/A,,Partly Cloudy,190,2013-01-04 23:53:00
6:53 PM,42.1,24.1,49,30.36,10.0,South,8.1,-,N/A,,Partly Cloudy,180,2013-01-05 00:53:00
7:53 PM,39.0,24.1,55,30.36,10.0,South,6.9,-,N/A,,Partly Cloudy,180,2013-01-05 01:53:00
8:53 PM,37.0,24.1,59,30.35,10.0,SSE,6.9,-,N/A,,Scattered Clouds,160,2013-01-05 02:53:00
9:53 PM,39.0,24.1,55,30.34,10.0,South,10.4,-,N/A,,Mostly Cloudy,170,2013-01-05 03:53:00
10:53 PM,37.0,25.0,62,30.34,10.0,South,10.4,-,N/A,,Scattered Clouds,170,2013-01-05 04:53:00
11:53 PM,36.0,24.1,62,30.33,10.0,South,8.1,-,N/A,,Partly Cloudy,170,2013-01-05 05:53:00